Theta_e
332 327 328 327 314 313 305 306 312 310 310 319 319 317 315 317 311 307 336 339 340 341 346 348 348 348 346 345 344 344 342 341 340 339 337 337 339 340 338 336 337 336 335 333 335 337 337 337 338
327 324 329 324 310 304 305 309 308 312 315 319 318 317 317 315 325 328 333 339 342 342 345 347 345 348 346 345 344 344 342 341 339 341 340 338 338 338 338 337 337 335 334 336 337 336 335 336 338
324 323 322 316 311 304 304 309 312 315 317 318 317 322 321 319 327 330 337 341 343 343 345 346 345 348 346 344 343 343 340 338 336 338 342 340 339 339 338 337 336 334 333 331 333 335 334 336 338
323 326 320 312 306 306 308 311 314 314 316 319 319 315 324 332 330 335 339 342 342 343 344 344 345 347 344 343 341 340 338 337 336 335 337 339 338 338 338 336 337 334 332 332 333 332 332 335 338
324 321 312 307 305 307 310 312 313 312 314 317 318 314 318 330 335 337 340 341 340 341 344 345 344 346 345 342 341 339 337 336 335 336 333 337 337 339 338 336 336 332 332 333 330 330 329 332 333
316 316 308 304 305 307 308 310 311 313 315 317 316 316 320 333 334 337 340 341 341 341 344 344 338 341 343 343 342 341 339 337 336 334 334 336 339 339 338 337 334 333 333 332 330 328 327 328 330
311 312 306 305 305 305 306 311 311 313 314 314 318 313 320 327 335 338 340 341 341 341 343 344 346 342 335 339 339 340 340 339 339 338 337 336 335 339 340 337 337 333 334 332 331 328 327 326 326
315 312 305 305 304 303 308 309 311 311 309 316 321 312 313 324 333 338 339 340 340 341 342 342 344 344 344 343 333 334 336 337 337 336 334 333 332 332 334 333 334 335 334 334 332 331 329 327 326
313 303 301 304 304 304 309 307 311 311 311 313 321 318 323 331 333 334 336 337 339 339 341 342 342 343 343 343 338 331 331 333 333 333 329 328 333 333 332 329 329 333 334 334 334 333 331 330 329
310 302 301 306 307 306 308 309 310 310 310 309 313 316 320 327 329 329 330 331 334 337 339 341 342 342 342 340 341 341 341 340 339 337 335 334 332 332 331 326 324 327 328 331 333 335 331 328 329
308 301 305 306 309 310 309 309 311 309 307 310 311 314 317 319 321 325 327 329 331 335 337 339 341 342 342 341 341 340 340 340 339 339 338 336 334 333 330 331 332 331 324 330 330 329 328 329 330
304 307 307 309 309 309 308 311 309 311 311 315 314 315 316 316 316 318 321 323 328 331 335 338 340 341 341 342 340 340 336 337 339 339 339 337 335 334 332 329 330 332 330 329 330 329 329 329 329
305 307 308 310 309 309 309 308 308 309 314 316 315 314 315 315 315 317 318 319 323 326 331 335 338 339 340 341 341 340 338 335 335 338 339 338 336 334 334 332 330 329 330 329 328 328 328 328 328
308 308 308 309 308 308 306 307 307 309 311 312 311 312 313 313 314 315 316 317 318 321 325 331 335 337 339 340 340 340 339 338 336 335 336 338 337 336 334 333 332 330 330 329 328 327 327 327 327
308 301 304 305 306 304 308 300 302 309 310 309 310 311 312 313 314 313 316 316 317 319 324 328 331 334 336 337 339 340 340 338 338 338 337 334 336 336 335 334 333 332 331 330 329 328 327 326 327
302 301 293 302 304 305 305 292 302 307 307 307 309 311 311 312 313 315 315 315 316 317 319 322 325 329 332 334 336 338 339 339 339 339 339 337 333 336 335 334 333 334 332 331 328 326 326 325 325
300 291 293 296 304 304 303 298 305 307 307 307 308 309 310 311 312 314 315 315 315 315 315 316 319 323 327 330 333 335 337 338 338 338 337 337 334 334 334 334 334 334 332 330 328 327 325 325 325
291 292 294 294 299 300 299 299 303 305 305 305 306 307 308 308 310 312 312 312 312 313 314 314 315 318 323 328 331 333 335 336 337 337 336 337 337 334 332 333 333 331 329 329 328 326 327 325 325
296 295 293 296 300 298 297 298 300 303 304 304 305 305 306 307 310 310 310 309 309 311 313 316 316 318 323 327 328 329 329 331 333 334 335 335 335 333 332 332 332 331 327 326 327 326 323 322 323
297 294 294 298 299 298 297 296 300 302 302 304 304 305 305 306 308 308 305 306 306 307 308 310 313 319 326 329 330 331 332 333 333 333 332 333 333 332 331 330 330 330 327 325 325 324 321 320 323
296 294 294 294 297 298 296 293 295 298 300 302 304 305 305 304 303 302 302 303 304 303 304 304 306 309 310 320 328 329 331 331 329 329 328 329 328 328 330 330 329 329 328 325 325 324 322 319 323
291 298 297 295 291 287 295 285 293 296 298 300 301 300 301 301 300 300 300 300 300 300 301 302 302 304 306 308 310 313 315 316 310 310 313 315 317 322 326 327 328 328 328 326 325 325 323 322 318
294 299 296 295 293 291 290 286 291 295 294 297 299 298 298 298 298 297 297 297 297 298 298 299 299 300 302 304 306 307 307 308 309 309 310 312 313 316 315 313 317 317 320 324 324 324 323 322 320
298 296 295 294 291 282 288 288 289 292 295 297 298 297 297 296 296 295 295 295 295 296 296 296 296 296 298 299 301 302 302 302 302 302 303 304 306 307 306 306 307 310 312 315 317 322 323 323 322
296 291 284 281 281 281 288 287 290 295 297 298 299 298 296 295 295 294 293 293 292 292 293 293 293 292 295 295 295 296 298 297 296 295 296 297 298 298 299 299 301 303 305 307 311 315 318 321 321
293 291 284 277 278 283 287 284 290 298 300 300 297 297 295 293 293 292 291 291 290 289 289 290 290 289 291 293 293 293 292 294 294 293 293 293 294 295 296 296 298 299 301 303 306 307 312 316 318
292 288 294 286 282 282 286 290 293 295 295 294 294 294 293 292 291 290 289 289 289 288 287 287 287 287 288 289 291 291 290 289 290 291 291 291 291 292 292 294 295 296 298 299 301 303 305 307 310
294 296 286 286 278 277 283 285 287 289 292 293 292 292 291 290 289 288 287 287 287 287 286 286 286 285 286 287 288 288 287 287 287 288 287 288 289 289 289 290 292 294 295 297 297 299 300 301 305
289 289 290 289 286 280 279 284 293 293 295 294 294 293 291 290 288 287 286 285 286 286 284 284 284 284 284 285 285 285 285 285 285 285 285 285 286 286 287 288 289 290 291 294 295 296 297 297 296
294 291 291 284 281 285 284 284 295 295 295 295 295 293 292 290 288 287 286 284 284 284 283 282 282 282 282 283 283 283 283 283 283 283 283 284 284 285 285 285 286 287 288 291 292 293 294 293 293
Wind_Speed
19 10 3 3 3 2 6 6 2 3 2 4 3 4 8 6 6 6 3 6 2 9 8 10 9 10 9 7 7 7 7 7 8 7 7 5 7 9 8 8 7 8 7 7 6 8 8 7 6
13 6 2 0 2 7 7 3 7 6 3 1 0 1 1 6 4 3 4 4 5 8 8 8 8 8 9 9 9 8 6 6 5 6 8 8 6 6 8 8 10 6 7 6 7 7 5 6 7
7 5 3 2 1 6 7 4 6 5 2 3 1 3 3 5 4 3 4 4 7 8 7 7 8 9 9 9 8 9 8 5 3 3 6 8 8 6 7 10 9 6 5 3 4 5 6 7 6
4 1 3 1 9 5 5 5 4 3 3 4 4 3 3 4 4 5 1 7 8 8 7 9 7 9 8 8 8 7 6 7 5 3 3 6 5 8 6 5 9 7 4 5 4 3 4 7 9
3 1 2 5 6 4 4 3 3 4 3 4 4 4 4 3 3 2 4 6 7 7 7 8 8 9 8 7 6 6 6 6 5 5 1 5 6 7 9 6 5 4 5 5 2 2 2 3 5
1 3 4 6 6 4 3 3 0 3 3 4 2 1 5 3 3 3 4 5 4 6 6 6 7 7 8 7 7 6 6 5 5 3 3 1 6 5 8 6 4 6 5 5 3 1 0 1 1
3 2 4 5 7 5 3 0 2 5 4 7 2 2 3 5 4 0 4 4 4 4 6 7 7 8 6 6 6 6 6 5 5 4 5 2 4 5 7 7 7 6 6 6 4 2 2 2 2
2 1 6 3 8 4 3 2 2 2 6 1 4 4 4 7 5 1 4 4 5 6 6 7 7 7 8 8 7 6 6 6 7 7 6 5 2 2 2 6 6 7 7 8 7 7 5 4 3
1 4 6 7 7 6 2 3 2 1 2 2 2 3 4 5 1 3 4 6 5 6 7 7 8 8 8 8 7 7 7 6 6 7 7 6 7 7 6 2 1 4 9 9 10 11 9 5 4
2 4 5 2 4 6 4 2 2 3 1 2 3 1 2 2 3 5 6 6 7 9 8 9 9 9 9 7 8 9 8 8 8 8 8 7 7 8 7 4 4 4 3 6 6 10 8 7 6
3 5 5 5 5 2 2 0 2 2 4 1 5 7 7 6 6 8 9 9 10 8 7 9 10 10 10 8 6 5 5 6 7 10 9 8 6 6 6 6 6 7 8 8 9 9 8 8 7
5 1 2 5 4 3 1 2 5 7 8 4 5 7 9 10 10 10 10 10 11 11 10 10 11 10 11 8 7 7 6 7 7 8 10 8 6 7 7 6 7 7 6 9 9 7 9 10 10
5 4 3 1 1 0 2 6 8 8 11 8 7 8 9 10 12 10 9 10 10 12 12 11 11 11 11 11 8 8 8 8 8 9 10 9 9 8 7 7 7 7 7 8 8 9 9 10 11
4 5 2 1 2 1 4 7 3 4 1 8 6 8 8 10 12 11 12 10 8 10 11 10 11 11 11 11 12 9 9 9 9 9 9 11 10 8 8 8 8 8 8 8 8 9 9 9 10
5 3 5 4 1 3 3 12 11 6 4 5 7 8 11 12 9 10 11 10 9 9 8 9 9 10 11 13 12 10 10 9 9 9 11 11 10 11 11 9 9 10 9 10 9 10 9 9 9
4 2 5 4 3 2 7 12 6 3 3 8 12 12 13 15 13 10 9 9 9 9 9 9 7 9 10 11 10 9 9 9 9 9 9 11 11 12 10 9 10 10 9 8 8 8 9 9 9
3 2 3 2 1 2 8 5 3 7 8 15 15 17 16 17 17 13 6 6 8 9 10 11 9 10 10 9 9 10 11 9 9 8 9 11 11 13 11 10 10 10 9 9 8 9 9 10 9
6 4 4 5 3 3 9 14 15 16 15 17 20 20 18 16 17 13 8 5 6 7 9 10 9 9 8 7 6 7 8 8 8 8 8 11 10 12 10 10 11 10 9 9 9 9 8 9 9
5 5 5 2 2 7 10 14 16 19 19 20 19 19 17 15 13 4 6 6 7 7 8 9 8 7 5 5 5 6 6 6 7 7 9 10 10 11 11 10 10 9 8 11 11 10 11 8 7
10 7 8 6 3 6 15 22 23 24 25 21 19 16 13 11 10 6 5 7 8 8 9 9 9 9 5 3 3 3 2 2 3 2 5 7 9 9 7 8 8 8 6 9 10 11 5 6 7
11 13 10 9 6 11 13 18 6 5 6 5 9 10 9 9 8 4 6 8 8 10 11 11 11 10 9 7 1 1 0 1 3 5 5 5 6 7 7 8 8 8 7 7 9 10 12 9 8
11 9 9 7 5 7 3 10 10 9 15 8 2 0 3 3 5 5 5 8 9 10 9 11 11 13 12 12 8 10 6 5 5 5 4 5 8 8 6 7 8 9 7 8 8 7 9 9 10
4 8 7 7 10 8 10 7 3 4 11 10 4 3 3 4 5 6 7 8 9 9 9 10 12 14 14 14 12 8 8 6 6 6 8 8 8 9 11 11 10 9 6 7 9 9 9 8 8
9 4 3 1 3 9 15 14 5 8 16 6 4 4 5 6 7 7 7 7 8 8 9 10 12 13 13 14 14 13 12 10 8 9 7 7 7 8 11 13 11 11 10 11 11 10 10 10 10
5 6 3 3 5 7 2 13 15 10 9 7 8 6 6 6 6 7 6 7 8 9 10 9 11 13 13 13 13 13 12 12 11 10 8 9 8 9 11 13 12 10 12 13 13 11 13 11 10
15 12 5 6 6 3 2 11 5 10 16 6 4 7 7 7 6 6 6 6 7 9 10 10 11 11 12 11 13 12 13 8 8 9 8 7 8 9 13 12 12 13 13 12 12 10 9 12 10
7 15 12 5 2 6 9 10 10 10 6 3 5 8 9 8 7 7 6 6 6 8 9 9 10 11 11 11 10 11 11 11 9 10 9 8 9 9 12 13 13 13 13 13 13 10 12 13 11
10 9 5 5 6 9 8 12 12 5 11 8 11 11 10 9 8 7 6 5 5 6 7 8 9 9 10 10 10 9 11 11 11 10 11 12 11 12 12 13 13 13 13 13 13 11 11 13 11
6 6 6 3 4 5 7 9 2 10 10 12 11 11 12 12 9 7 6 5 5 5 6 7 8 9 9 9 10 11 11 11 10 9 10 11 12 13 13 13 14 14 14 13 12 13 13 13 14
19 16 13 9 10 8 10 24 6 2 1 5 11 13 13 12 10 8 6 5 4 4 6 7 7 7 7 8 8 10 10 11 11 12 12 12 12 12 12 13 13 13 14 13 14 14 14 15 16
Wind_Direction
322 331 300 249 208 124 100 84 30 85 113 31 21 351 37 30 2 31 35 161 118 154 152 162 149 151 147 133 141 143 141 140 147 150 143 147 125 122 111 116 106 106 99 114 116 98 88 75 68
325 322 258 348 193 145 99 72 81 57 51 328 58 298 78 67 46 78 128 137 160 156 159 157 144 147 146 141 140 147 147 154 169 190 167 151 158 150 131 132 114 101 136 125 112 94 64 55 30
319 324 315 32 123 107 114 100 85 83 39 350 39 24 7 31 58 33 68 141 159 160 164 143 154 147 147 145 145 150 151 170 204 211 207 170 160 122 145 137 126 119 111 89 75 75 35 33 13
332 186 126 318 104 75 91 100 59 105 105 29 355 74 117 23 358 9 29 159 163 160 168 142 166 160 158 156 159 163 169 172 174 221 233 145 151 147 134 128 135 131 123 119 71 52 29 28 83
15 277 93 108 90 104 97 65 17 72 90 51 345 57 66 71 2 39 141 165 167 167 174 170 185 163 160 175 179 176 179 179 180 180 217 190 197 192 159 173 184 151 133 116 116 103 53 46 68
46 296 157 161 119 119 90 26 201 88 82 64 68 31 66 18 6 72 149 162 169 175 183 180 172 175 174 177 183 185 191 189 191 187 228 253 179 177 179 159 163 155 153 137 178 183 153 43 72
31 322 110 143 134 144 100 335 95 70 81 60 353 65 82 50 25 83 163 171 178 180 195 195 198 189 192 195 190 193 199 200 205 221 231 284 21 196 196 184 160 160 174 172 194 229 272 294 311
19 286 150 163 170 130 62 126 60 24 72 22 335 41 51 7 345 189 188 196 201 193 210 210 210 213 213 203 200 204 205 211 220 219 238 247 242 4 194 190 185 196 201 200 201 211 224 252 304
247 214 181 162 171 127 89 164 96 0 21 49 47 23 0 345 290 221 208 225 225 220 218 218 217 222 225 225 202 208 218 220 220 225 230 238 238 217 201 156 325 277 201 221 216 212 214 217 238
250 235 167 99 123 132 110 47 35 235 18 129 182 165 331 327 288 283 267 262 231 240 224 229 220 222 225 223 227 222 222 226 221 222 232 234 238 237 237 230 214 249 265 248 229 218 220 213 263
162 225 151 150 114 67 83 81 5 297 265 245 313 318 322 316 311 285 281 280 282 262 237 227 227 223 223 222 224 225 230 227 233 231 227 233 242 237 231 235 222 223 209 232 221 226 233 249 263
165 160 171 127 93 120 149 328 278 263 267 311 307 305 301 302 303 295 292 290 278 268 253 243 234 227 227 229 219 221 218 226 231 229 227 227 231 238 247 244 241 235 224 228 232 237 240 246 249
172 154 206 121 81 129 123 256 275 258 264 290 292 276 282 292 294 289 289 288 286 271 265 251 241 235 230 225 230 230 222 223 228 237 229 226 230 234 244 250 251 246 240 234 234 238 239 242 248
133 151 210 302 169 213 237 258 228 199 289 285 285 287 295 295 290 290 285 282 295 292 270 260 246 240 238 233 230 229 229 229 225 229 230 231 238 237 234 242 247 250 254 255 250 239 234 242 251
133 206 261 224 207 226 202 261 241 246 260 270 295 299 297 294 296 277 281 280 303 304 293 267 262 246 237 237 237 234 233 230 230 226 225 230 233 240 242 243 240 238 230 243 261 264 256 251 248
155 188 210 109 156 147 197 259 260 200 263 291 290 288 290 293 295 292 282 284 289 293 295 287 260 249 241 239 239 236 236 232 234 237 234 230 228 238 241 246 245 251 245 245 237 248 256 257 254
212 230 216 295 161 142 217 270 215 209 281 292 290 286 285 288 289 291 332 306 299 296 294 292 279 265 252 245 243 240 240 235 237 236 239 237 230 234 237 244 250 249 245 243 238 239 237 251 252
177 206 225 244 145 226 256 264 275 277 280 277 279 275 277 279 284 309 328 335 326 315 311 302 297 287 265 248 240 242 239 239 239 237 238 241 237 237 237 250 250 249 249 249 241 242 243 245 260
148 183 226 277 284 302 275 276 280 280 275 267 266 272 276 279 297 338 351 2 347 352 343 335 319 304 268 224 222 235 238 234 242 250 255 259 256 253 245 253 260 255 239 247 247 246 239 243 244
237 228 230 265 286 287 296 289 283 272 265 266 272 276 282 299 301 342 15 26 27 18 13 14 12 8 344 267 236 255 265 260 274 281 258 260 267 261 255 252 255 246 236 240 247 241 235 240 226
235 242 243 258 306 276 296 283 285 258 265 266 261 273 289 302 322 42 49 42 37 33 25 24 21 26 23 345 287 251 234 213 25 30 14 351 298 283 265 261 258 261 248 242 249 244 235 248 237
237 223 231 254 285 275 20 294 266 257 290 285 325 300 23 32 78 75 66 52 42 34 31 33 33 33 29 25 45 53 56 54 30 17 17 17 16 10 355 310 297 274 268 258 258 260 256 250 255
222 169 188 247 263 303 251 258 220 244 251 239 173 129 97 73 73 72 63 51 45 38 37 38 43 41 38 42 41 49 55 46 36 25 20 17 17 20 22 360 347 338 331 305 282 271 260 251 256
149 124 80 150 269 259 230 222 236 195 230 214 197 188 144 128 116 96 80 72 57 46 47 44 49 47 42 46 46 48 49 43 36 25 19 9 6 6 11 357 350 340 335 331 317 308 283 270 256
183 158 199 235 214 253 341 215 263 238 249 212 270 165 145 131 121 105 84 67 53 47 43 47 47 48 43 47 47 42 42 38 36 22 14 9 2 2 359 353 348 346 338 331 325 318 312 300 279
201 197 201 225 219 277 157 236 249 252 231 248 29 133 143 139 121 101 85 73 59 48 42 44 46 46 42 43 44 40 36 31 30 21 8 9 0 354 349 346 345 342 340 339 336 323 319 323 319
179 215 224 300 205 264 240 251 266 230 223 258 206 173 166 152 142 124 103 81 68 55 46 41 42 43 39 39 41 37 31 28 20 17 10 3 356 350 348 346 342 344 343 344 341 337 332 329 321
212 151 173 187 238 246 252 258 243 187 211 200 200 188 168 159 155 143 120 95 72 55 44 44 48 45 38 37 37 35 26 22 17 14 9 1 354 352 349 349 345 342 343 343 343 340 336 337 331
179 198 226 183 234 256 273 258 140 235 242 209 197 182 180 176 168 152 133 111 88 66 45 42 37 37 40 38 33 32 25 18 13 14 8 3 353 354 351 349 346 344 343 344 341 342 338 337 333
225 208 198 218 203 240 271 265 140 155 66 208 193 187 180 175 170 164 150 130 106 79 47 37 29 29 32 46 44 36 32 20 13 5 2 3 354 352 351 350 349 347 345 344 343 338 344 337 333